Location: Beutels
(47.8767°N, 9.8584°E)
Time: 01:35:20
(UTC+00:00)

Cosmos 1697 Rocket - Pass Details

Date: 19 May 2025
Orbit: 830 x 844 km, 71.0° (Epoch: 23 June)

Event Time Altitude Azimuth Distance (km) Brightness Sun altitude
Rises 21:18:00 0° 327° (NNW) 3,406 7.6 -17.1°
Reaches altitude 10° 21:20:34 10° 320° (NW) 2,469 6.4 -17.3°
Maximum altitude 21:25:48 40° 253° (WSW) 1,233 3.6 -17.7°
Enters shadow 21:29:07 20° 196° (SSW) 1,833 4.0 -18.0°
